Cloud_Cover
5 5 5 4 24 31 5 5 5 2 1 0 0 0 0 0 0 0 0 0 0 0 0 0 0 0 0 0 0 0 0 0 0 2 5 85 100 100 100 100 100 100 100
67 64 28 8 76 18 34 6 13 5 5 5 0 0 0 0 0 0 0 0 0 3 0 0 0 0 0 0 0 0 0 0 0 0 2 20 100 100 100 100 100 100 100
100 66 65 100 100 96 19 5 38 5 5 5 1 0 0 0 0 0 0 0 0 0 0 0 0 0 0 0 0 0 8 6 0 0 0 32 91 100 100 100 100 100 100
100 100 96 100 100 99 5 5 31 5 5 5 5 5 5 0 0 0 4 5 5 0 0 0 0 0 0 0 0 0 1 5 45 2 0 0 93 100 100 100 100 100 100
100 100 100 100 84 2 3 2 2 5 5 5 5 4 2 0 0 0 0 1 0 1 1 5 5 5 0 0 0 0 0 0 5 100 83 0 0 76 100 100 100 100 100
93 28 11 5 0 0 0 0 2 2 0 5 5 5 5 0 0 0 0 0 0 0 1 5 5 9 5 4 1 5 2 0 0 8 73 100 14 0 89 100 100 100 100
5 5 5 5 5 0 0 1 5 5 2 0 0 0 0 0 3 5 5 17 14 16 5 5 0 0 5 5 5 5 0 0 0 0 0 5 52 12 0 100 100 100 100
2 0 0 4 5 19 70 21 4 0 0 0 0 0 0 0 4 1 0 0 0 1 4 5 3 4 0 0 0 0 0 0 0 0 0 0 2 2 2 0 22 93 100
2 1 5 5 5 4 1 0 4 5 5 2 0 1 0 0 5 0 2 4 5 5 5 5 5 5 5 5 2 0 0 0 0 2 0 0 0 1 0 2 8 0 5
0 5 4 5 5 0 2 3 0 0 0 0 1 3 5 5 5 5 5 17 6 5 5 5 5 5 5 15 6 0 0 0 0 0 4 0 0 0 59 79 7 7 0
0 0 2 0 0 0 0 5 3 5 5 11 5 5 5 5 16 100 50 39 52 42 22 5 5 5 5 72 48 4 0 0 0 0 0 0 2 25 100 100 100 21 0
0 0 0 0 0 1 6 83 84 56 40 16 5 12 68 11 5 65 92 98 40 5 5 5 10 5 6 5 85 97 7 4 2 0 0 0 0 13 100 36 100 99 22
0 0 2 5 6 80 100 100 51 5 5 5 5 61 17 5 3 5 37 77 80 5 5 5 5 5 1 5 5 55 98 53 5 5 0 0 2 0 34 98 7 12 96
5 46 54 5 42 100 83 49 6 5 5 5 5 5 0 0 4 0 5 47 49 41 5 5 6 5 5 5 3 5 6 100 100 59 5 0 0 0 0 100 35 4 88
58 98 9 5 8 2 5 39 7 6 5 5 5 4 0 0 1 5 5 76 99 98 14 5 5 5 5 5 5 5 5 4 98 100 81 5 0 0 0 99 94 5 12
5 5 5 2 2 5 56 50 48 44 5 6 5 5 0 3 5 5 5 55 89 91 75 5 5 5 5 5 5 5 5 2 1 35 100 15 5 4 0 1 17 18 5
5 4 5 5 5 5 100 76 31 25 55 86 7 4 4 5 7 81 93 76 60 77 81 2 5 5 5 10 44 6 4 5 5 5 45 57 5 21 5 1 1 66 95
5 4 5 5 5 96 93 5 14 89 99 90 5 5 5 8 5 80 100 100 100 100 100 97 52 76 100 100 100 100 16 82 100 40 1 5 5 16 62 5 3 41 97
5 5 5 9 84 98 85 99 98 100 100 17 7 5 5 74 42 60 98 100 100 100 100 100 64 100 100 100 100 100 100 100 100 5 0 2 5 5 77 52 5 5 87
5 5 6 28 68 53 100 100 100 99 6 5 5 5 5 5 5 77 100 100 100 100 100 100 100 100 100 100 100 100 100 100 100 93 4 0 1 2 6 100 15 26 42
5 1 6 5 13 97 100 100 78 77 25 5 5 2 5 5 58 94 100 100 100 100 100 100 100 100 100 100 100 100 100 99 97 99 7 5 3 5 21 30 97 11 72
4 5 5 5 6 16 68 83 5 5 4 0 0 2 5 5 84 100 100 100 100 100 100 100 100 100 100 100 100 100 100 100 100 95 68 98 5 14 93 34 100 100 57
0 16 5 5 49 91 60 5 5 5 4 5 5 7 75 100 100 100 100 98 100 98 100 99 100 100 100 100 100 100 100 100 100 100 98 100 88 9 35 81 99 100 100
1 6 5 5 52 49 5 5 5 4 5 5 10 94 100 100 100 100 100 100 100 100 100 100 100 100 100 100 100 100 100 100 100 100 100 96 98 86 20 7 99 100 100
4 5 5 5 5 5 5 5 3 5 24 51 94 100 100 100 100 100 100 100 100 100 100 86 95 99 100 100 100 100 100 100 100 100 100 100 97 100 99 16 5 100 100
5 5 15 56 5 5 5 2 5 94 100 100 100 30 99 100 100 100 100 100 100 100 100 99 100 100 100 100 99 94 100 100 100 100 100 98 100 100 100 36 5 100 100